Regional Weather Roundup
Issued by NWS

Home | Current Version | Previous Version | Graphics & Text | Print | Product List | Glossary On
Versions: 1 2 3 4 5 6 7 8 9 10 11 12 13 14 15 16 17 18 19 20 21 22 23 24 25 26 27 28 29 30 31 32 33 34 35 36 37 38 39 40 41 42 43 44 45 46 47 48 49 50
000
ASUS43 KIND 011259
RWRIN

WEATHER ROUNDUP FOR INDIANA
NATIONAL WEATHER SERVICE INDIANAPOLIS IN
900 AM EDT FRI AUG 01 2014

NOTE: "FAIR" INDICATES FEW OR NO CLOUDS BELOW 12,000 FEET WITH NO
SIGNIFICANT WEATHER AND/OR OBSTRUCTIONS TO VISIBILITY.

* - STATION DOES NOT REPORT WEATHER SUCH AS PRECIPITATION OR FOG.

+ - STATION NOT QUALITY CONTROLLED BY THE NATIONAL WEATHER SERVICE.
    USE DATA WITH CAUTION...ESPECIALLY DEWPOINT AND RELATIVE
    HUMIDITY OBSERVATIONS.

INZ001>003-010>013-019-020-011400-
NORTHWEST INDIANA

CITY           SKY/WX    TMP DP  RH WIND       PRES   REMARKS
GARY /AIRPORT/ PTSUNNY   70  64  83 S3        30.10R
KNOX *+        SUNNY     64  60  87 CALM      30.11R
MONTICELLO +   MOSUNNY   65  61  87 CALM      30.12R
RENSSELAER +   MOSUNNY   63  63 100 CALM      30.12R
VALPARAISO     MOSUNNY   67  61  81 SW7       30.11R

$$

LMZ046-743>745-011400-
SOUTHERN LAKE MICHIGAN

STATION/POSITION TIME  TEMP WIND        PRES
                       AIR  DIR/SP/G
                 (UTC) (F)  (DEG/KT/KT) (MB)
BURNS HARBOR     1200   66  190/  7/  8   N/A
MICHIGAN CITY    1200   67  170/  5/  6   N/A

$$

INZ004-005-014>016-021>024-011400-
NORTH CENTRAL INDIANA

CITY           SKY/WX    TMP DP  RH WIND       PRES   REMARKS
ELKHART        SUNNY     66  63  88 CALM      30.12
GOSHEN         SUNNY     67  62  84 SW5       30.11S
SOUTH BEND     SUNNY     67  61  81 SW6       30.11R
WARSAW +       MOSUNNY   66  61  82 CALM      30.12S

$$

INZ006>009-017-018-025>027-011400-
NORTHEAST INDIANA

CITY           SKY/WX    TMP DP  RH WIND       PRES   REMARKS
ANGOLA *+      SUNNY     68  59  73 SW3       30.12R
FORT WAYNE     MOSUNNY   66  61  84 SW3       30.14R

$$

INZ028-029-035-036-043>045-051>053-011400-
WEST CENTRAL INDIANA

CITY           SKY/WX    TMP DP  RH WIND       PRES   REMARKS
GREENCASTLE +  SUNNY     64  63  94 CALM      30.13R FOG
LAFAYETTE      MOSUNNY   64  61  90 CALM      30.12R
TERRE HAUTE    SUNNY     67  63  87 CALM      30.12R

$$

INZ030>032-037>040-046>048-054>057-064-065-011400-
CENTRAL INDIANA

CITY           SKY/WX    TMP DP  RH WIND       PRES   REMARKS
ANDERSON       SUNNY     64  63  94 CALM      30.14
COLUMBUS       SUNNY     64  64 100 CALM      30.13R
INDIANAPOLIS   MOSUNNY   69  61  75 SE3       30.12S
-EAGLE CREEK   SUNNY     67  62  84 CALM      30.12R
KOKOMO *+      SUNNY     64  61  88 CALM      30.13S
MT COMFORT *+  SUNNY     68 N/A N/A CALM      30.13S
SHELBYVILLE    SUNNY     68  63  84 CALM      30.12S

$$

INZ033-034-041-042-049-050-058-059-011400-
EAST CENTRAL INDIANA

CITY           SKY/WX    TMP DP  RH WIND       PRES   REMARKS
MUNCIE         SUNNY     66  60  81 CALM      30.13S

$$

INZ060-061-067>069-081>083-085>088-011400-
SOUTHWEST INDIANA

CITY           SKY/WX    TMP DP  RH WIND       PRES   REMARKS
EVANSVILLE     MOSUNNY   69  61  75 NE5       30.10S

$$

INZ062-063-066-070>080-084-089>092-011400-
SOUTH CENTRAL AND SOUTHEAST INDIANA

CITY           SKY/WX    TMP DP  RH WIND       PRES   REMARKS
BLOOMINGTON    SUNNY     66  63  90 CALM      30.12S

$$




USA.gov is the U.S. government's official web portal to all federal, state and local government web resources and services.